| time (UTC) | temp C | wind direction | speed KPH | gust KPH | rain 1hr cm | rain 24hr cm | rain mn cm | humidity % | barometer mb |
| 20260504110555 | 15 | 148 | 4.8 | 6.4 | 0.00 | 0.00 | 0.00 | 85 | 1015.5 |
| 20260504110104 | 15 | 152 | 4.8 | 6.4 | 0.00 | 0.00 | 0.00 | 84 | 1015.5 |
| 20260504100554 | 15 | 150 | 8.0 | 12.9 | 0.00 | 0.00 | 0.00 | 81 | 1015.2 |
| 20260504100103 | 15 | 146 | 9.7 | 12.9 | 0.00 | 0.00 | 0.00 | 81 | 1015.1 |
| 20260504081556 | 16 | 147 | 9.7 | 14.5 | 0.00 | 0.00 | 0.00 | 79 | 1016.0 |
| 20260504081058 | 16 | 186 | 8.0 | 14.5 | 0.00 | 0.00 | 0.00 | 79 | 1016.1 |
| 20260504080557 | 16 | 157 | 9.7 | 14.5 | 0.00 | 0.00 | 0.00 | 79 | 1016.1 |
| 20260504050553 | 17 | 165 | 8.0 | 12.9 | 0.00 | 0.00 | 0.00 | 76 | 1018.2 |
| 20260504045554 | 17 | 164 | 11.3 | 14.5 | 0.00 | 0.00 | 0.00 | 75 | 1018.3 |
| 20260504045054 | 17 | 150 | 8.0 | 14.5 | 0.00 | 0.00 | 0.00 | 75 | 1018.4 |
| 20260504044554 | 17 | 158 | 9.7 | 14.5 | 0.00 | 0.00 | 0.00 | 75 | 1018.4 |
| 20260504044055 | 17 | 149 | 8.0 | 11.3 | 0.00 | 0.00 | 0.00 | 75 | 1018.5 |
| 20260504043555 | 17 | 160 | 8.0 | 14.5 | 0.00 | 0.00 | 0.00 | 75 | 1018.6 |
| 20260504043058 | 17 | 170 | 8.0 | 14.5 | 0.00 | 0.00 | 0.00 | 75 | 1018.7 |
| 20260504042559 | 17 | 172 | 9.7 | 12.9 | 0.00 | 0.00 | 0.00 | 75 | 1018.5 |
| 20260504042055 | 17 | 150 | 9.7 | 12.9 | 0.00 | 0.00 | 0.00 | 75 | 1018.4 |
| 20260504041553 | 17 | 153 | 8.0 | 14.5 | 0.00 | 0.00 | 0.00 | 74 | 1018.5 |
| 20260504041057 | 17 | 148 | 8.0 | 14.5 | 0.00 | 0.00 | 0.00 | 73 | 1018.6 |
| 20260504040555 | 17 | 175 | 9.7 | 11.3 | 0.00 | 0.00 | 0.00 | 73 | 1018.6 |
| 20260504040056 | 17 | 160 | 6.4 | 12.9 | 0.00 | 0.00 | 0.00 | 73 | 1018.5 |
| 20260504035555 | 18 | 175 | 8.0 | 12.9 | 0.00 | 0.00 | 0.00 | 73 | 1018.5 |
| 20260504035054 | 18 | 172 | 8.0 | 14.5 | 0.00 | 0.00 | 0.00 | 72 | 1018.6 |
| 20260504034552 | 18 | 166 | 9.7 | 14.5 | 0.00 | 0.00 | 0.00 | 72 | 1018.7 |
| 20260504034054 | 18 | 159 | 9.7 | 14.5 | 0.00 | 0.00 | 0.00 | 72 | 1018.6 |
| 20260504033554 | 18 | 182 | 11.3 | 16.1 | 0.00 | 0.00 | 0.00 | 72 | 1018.6 |
| 20260504033102 | 18 | 177 | 11.3 | 16.1 | 0.00 | 0.00 | 0.00 | 72 | 1018.6 |
| 20260504032552 | 18 | 172 | 9.7 | 14.5 | 0.00 | 0.00 | 0.00 | 72 | 1018.5 |
| 20260504032056 | 18 | 170 | 9.7 | 14.5 | 0.00 | 0.00 | 0.00 | 71 | 1018.4 |
| 20260504031604 | 18 | 168 | 9.7 | 14.5 | 0.00 | 0.00 | 0.00 | 72 | 1018.5 |
| 20260504031056 | 18 | 155 | 9.7 | 14.5 | 0.00 | 0.00 | 0.00 | 71 | 1018.4 |
| 20260504030558 | 18 | 159 | 9.7 | 12.9 | 0.00 | 0.00 | 0.00 | 71 | 1018.4 |
| 20260504030058 | 18 | 165 | 9.7 | 16.1 | 0.00 | 0.00 | 0.00 | 70 | 1018.6 |
| 20260504025555 | 18 | 156 | 11.3 | 16.1 | 0.00 | 0.00 | 0.00 | 69 | 1018.5 |
| 20260504025055 | 18 | 174 | 11.3 | 19.3 | 0.00 | 0.00 | 0.00 | 69 | 1018.5 |
| 20260504024554 | 19 | 154 | 11.3 | 19.3 | 0.00 | 0.00 | 0.00 | 69 | 1018.6 |
| 20260504024059 | 19 | 192 | 11.3 | 17.7 | 0.00 | 0.00 | 0.00 | 68 | 1018.4 |
| 20260504023552 | 19 | 172 | 12.9 | 17.7 | 0.00 | 0.00 | 0.00 | 69 | 1018.2 |
| 20260504023055 | 19 | 169 | 11.3 | 19.3 | 0.00 | 0.00 | 0.00 | 68 | 1018.1 |
| 20260504022555 | 19 | 160 | 11.3 | 19.3 | 0.00 | 0.00 | 0.00 | 68 | 1018.0 |
| 20260504022054 | 20 | 141 | 12.9 | 22.5 | 0.00 | 0.00 | 0.00 | 67 | 1017.9 |
| 20260504021558 | 20 | 165 | 14.5 | 22.5 | 0.00 | 0.00 | 0.00 | 67 | 1017.7 |
| 20260504021056 | 20 | 146 | 12.9 | 19.3 | 0.00 | 0.00 | 0.00 | 67 | 1017.7 |
| 20260504020556 | 20 | 146 | 14.5 | 19.3 | 0.00 | 0.00 | 0.00 | 67 | 1017.7 |
| 20260504020128 | 20 | 143 | 12.9 | 20.9 | 0.00 | 0.00 | 0.00 | 67 | 1017.6 |
| 20260504015556 | 20 | 132 | 14.5 | 22.5 | 0.00 | 0.00 | 0.00 | 66 | 1017.7 |
| 20260504015056 | 20 | 151 | 14.5 | 22.5 | 0.00 | 0.00 | 0.00 | 66 | 1017.6 |
| 20260504014607 | 20 | 160 | 14.5 | 22.5 | 0.00 | 0.00 | 0.00 | 66 | 1017.6 |
| 20260504014055 | 20 | 148 | 16.1 | 22.5 | 0.00 | 0.00 | 0.00 | 66 | 1017.7 |
| 20260504013555 | 21 | 129 | 16.1 | 22.5 | 0.00 | 0.00 | 0.00 | 66 | 1017.6 |
| 20260504013116 | 21 | 153 | 14.5 | 22.5 | 0.00 | 0.00 | 0.00 | 66 | 1017.5 |
| 20260504012555 | 21 | 151 | 16.1 | 22.5 | 0.00 | 0.00 | 0.00 | 66 | 1017.6 |
| 20260504012057 | 21 | 162 | 14.5 | 22.5 | 0.00 | 0.00 | 0.00 | 66 | 1017.5 |
| 20260504011554 | 21 | 159 | 14.5 | 22.5 | 0.00 | 0.00 | 0.00 | 65 | 1017.4 |
| 20260504011055 | 21 | 160 | 11.3 | 17.7 | 0.00 | 0.00 | 0.00 | 66 | 1017.4 |
| 20260504010555 | 21 | 136 | 12.9 | 20.9 | 0.00 | 0.00 | 0.00 | 65 | 1017.4 |
| 20260504010057 | 22 | 148 | 14.5 | 20.9 | 0.00 | 0.00 | 0.00 | 63 | 1017.4 |
| 20260504005552 | 22 | 161 | 14.5 | 20.9 | 0.00 | 0.00 | 0.00 | 60 | 1017.5 |
| 20260504005056 | 22 | 162 | 14.5 | 20.9 | 0.00 | 0.00 | 0.00 | 56 | 1017.6 |
| 20260504004635 | 22 | 146 | 6.4 | 8.0 | 0.00 | 0.00 | 0.00 | 54 | 1017.6 |
| 20260504004056 | 22 | 131 | 6.4 | 8.0 | 0.00 | 0.00 | 0.00 | 51 | 1017.4 |
| 20260504003555 | 22 | 144 | 4.8 | 8.0 | 0.00 | 0.00 | 0.00 | 50 | 1017.5 |
| 20260504003100 | 23 | 130 | 6.4 | 8.0 | 0.00 | 0.00 | 0.00 | 49 | 1017.6 |
| 20260504002555 | 23 | 131 | 6.4 | 8.0 | 0.00 | 0.00 | 0.00 | 48 | 1017.6 |
| 20260504002055 | 23 | 134 | 4.8 | 12.9 | 0.00 | 0.00 | 0.00 | 48 | 1017.6 |
| 20260504001621 | 23 | 138 | 6.4 | 12.9 | 0.00 | 0.00 | 0.00 | 46 | 1017.6 |
| 20260504001055 | 23 | 130 | 9.7 | 12.9 | 0.00 | 0.00 | 0.00 | 43 | 1017.6 |
| 20260504000555 | 24 | 129 | 8.0 | 12.9 | 0.00 | 0.00 | 0.00 | 45 | 1017.6 |
| 20260504000113 | 24 | 146 | 9.7 | 12.9 | 0.00 | 0.00 | 0.00 | 45 | 1017.7 |
| 20260503235559 | 24 | 155 | 6.4 | 14.5 | 0.00 | 0.00 | 0.00 | 46 | 1017.8 |
| 20260503235055 | 24 | 135 | 9.7 | 14.5 | 0.00 | 0.00 | 0.00 | 44 | 1017.9 |
| 20260503234604 | 24 | 150 | 9.7 | 14.5 | 0.00 | 0.00 | 0.00 | 42 | 1017.9 |
| 20260503234056 | 24 | 142 | 8.0 | 12.9 | 0.00 | 0.00 | 0.00 | 46 | 1017.9 |
| 20260503233552 | 24 | 136 | 8.0 | 11.3 | 0.00 | 0.00 | 0.00 | 42 | 1017.8 |
| 20260503233101 | 25 | 127 | 8.0 | 12.9 | 0.00 | 0.00 | 0.00 | 43 | 1017.7 |
| 20260503232556 | 24 | 136 | 9.7 | 14.5 | 0.00 | 0.00 | 0.00 | 43 | 1017.7 |
| 20260503232056 | 24 | 137 | 11.3 | 14.5 | 0.00 | 0.00 | 0.00 | 41 | 1017.7 |
| 20260503231555 | 25 | 146 | 11.3 | 14.5 | 0.00 | 0.00 | 0.00 | 43 | 1017.9 |
| 20260503231056 | 25 | 134 | 8.0 | 14.5 | 0.00 | 0.00 | 0.00 | 41 | 1017.9 |
| 20260503230556 | 25 | 141 | 11.3 | 14.5 | 0.00 | 0.00 | 0.00 | 41 | 1018.1 |
| 20260503230111 | 25 | 129 | 8.0 | 17.7 | 0.00 | 0.00 | 0.00 | 42 | 1018.2 |
| 20260503225555 | 25 | 127 | 6.4 | 17.7 | 0.00 | 0.00 | 0.00 | 41 | 1018.1 |
| 20260503225055 | 25 | 170 | 11.3 | 17.7 | 0.00 | 0.00 | 0.00 | 39 | 1018.1 |
| 20260503224604 | 25 | 160 | 8.0 | 19.3 | 0.00 | 0.00 | 0.00 | 42 | 1018.1 |
| 20260503224055 | 25 | 137 | 11.3 | 19.3 | 0.00 | 0.00 | 0.00 | 41 | 1018.2 |
| 20260503223556 | 25 | 143 | 14.5 | 19.3 | 0.00 | 0.00 | 0.00 | 41 | 1018.3 |
| 20260503223054 | 25 | 117 | 12.9 | 19.3 | 0.00 | 0.00 | 0.00 | 40 | 1018.4 |
| 20260503222556 | 25 | 153 | 9.7 | 17.7 | 0.00 | 0.00 | 0.00 | 42 | 1018.5 |
| 20260503222055 | 25 | 172 | 8.0 | 16.1 | 0.00 | 0.00 | 0.00 | 40 | 1018.6 |
| 20260503221602 | 25 | 196 | 11.3 | 19.3 | 0.00 | 0.00 | 0.00 | 37 | 1018.6 |
| 20260503221056 | 25 | 211 | 4.8 | 20.9 | 0.00 | 0.00 | 0.00 | 38 | 1018.6 |
| 20260503220556 | 25 | 193 | 11.3 | 20.9 | 0.00 | 0.00 | 0.00 | 39 | 1018.6 |
| 20260503220058 | 25 | 129 | 11.3 | 20.9 | 0.00 | 0.00 | 0.00 | 43 | 1018.7 |
| 20260503215556 | 25 | 157 | 16.1 | 20.9 | 0.00 | 0.00 | 0.00 | 42 | 1018.9 |
| 20260503215055 | 25 | 179 | 11.3 | 20.9 | 0.00 | 0.00 | 0.00 | 39 | 1018.8 |
| 20260503214602 | 25 | 143 | 12.9 | 25.7 | 0.00 | 0.00 | 0.00 | 44 | 1019.1 |
| 20260503214059 | 25 | 145 | 14.5 | 25.7 | 0.00 | 0.00 | 0.00 | 46 | 1019.1 |
| 20260503213557 | 25 | 126 | 12.9 | 20.9 | 0.00 | 0.00 | 0.00 | 45 | 1019.0 |
| 20260503213100 | 25 | 162 | 12.9 | 22.5 | 0.00 | 0.00 | 0.00 | 44 | 1019.2 |
| 20260503212555 | 25 | 101 | 14.5 | 22.5 | 0.00 | 0.00 | 0.00 | 44 | 1019.3 |
| 20260503212055 | 25 | 171 | 12.9 | 19.3 | 0.00 | 0.00 | 0.00 | 46 | 1019.4 |
| 20260503211558 | 25 | 148 | 12.9 | 19.3 | 0.00 | 0.00 | 0.00 | 44 | 1019.4 |
| 20260503211056 | 25 | 125 | 9.7 | 17.7 | 0.00 | 0.00 | 0.00 | 47 | 1019.5 |
| 20260503210558 | 25 | 125 | 6.4 | 20.9 | 0.00 | 0.00 | 0.00 | 44 | 1019.7 |
| 20260503210058 | 25 | 150 | 9.7 | 20.9 | 0.00 | 0.00 | 0.00 | 44 | 1019.7 |
| 20260503205556 | 25 | 138 | 9.7 | 17.7 | 0.00 | 0.00 | 0.00 | 46 | 1019.8 |
| 20260503205056 | 25 | 112 | 9.7 | 17.7 | 0.00 | 0.00 | 0.00 | 40 | 1019.8 |
| 20260503204600 | 25 | 122 | 11.3 | 17.7 | 0.00 | 0.00 | 0.00 | 45 | 1019.9 |
| 20260503204055 | 25 | 113 | 8.0 | 19.3 | 0.00 | 0.00 | 0.00 | 44 | 1020.0 |
| 20260503203555 | 25 | 78 | 6.4 | 22.5 | 0.00 | 0.00 | 0.00 | 41 | 1020.0 |
| 20260503203113 | 25 | 151 | 11.3 | 22.5 | 0.00 | 0.00 | 0.00 | 45 | 1020.3 |
| 20260503202555 | 25 | 150 | 14.5 | 22.5 | 0.00 | 0.00 | 0.00 | 46 | 1020.4 |
| 20260503202056 | 25 | 143 | 11.3 | 19.3 | 0.00 | 0.00 | 0.00 | 46 | 1020.4 |
| 20260503201556 | 25 | 117 | 11.3 | 17.7 | 0.00 | 0.00 | 0.00 | 41 | 1020.5 |
| 20260503201055 | 25 | 173 | 9.7 | 17.7 | 0.00 | 0.00 | 0.00 | 42 | 1020.6 |
| 20260503200555 | 25 | 117 | 11.3 | 19.3 | 0.00 | 0.00 | 0.00 | 44 | 1020.6 |
| 20260503200105 | 25 | 114 | 12.9 | 20.9 | 0.00 | 0.00 | 0.00 | 44 | 1020.6 |
| 20260503195554 | 25 | 193 | 11.3 | 20.9 | 0.00 | 0.00 | 0.00 | 43 | 1020.6 |
| 20260503195055 | 25 | 136 | 9.7 | 17.7 | 0.00 | 0.00 | 0.00 | 50 | 1020.6 |
| 20260503194557 | 25 | 147 | 12.9 | 17.7 | 0.00 | 0.00 | 0.00 | 45 | 1020.7 |
| 20260503194057 | 25 | 120 | 4.8 | 22.5 | 0.00 | 0.00 | 0.00 | 43 | 1020.7 |
| 20260503193556 | 25 | 134 | 12.9 | 22.5 | 0.00 | 0.00 | 0.00 | 43 | 1020.9 |
| 20260503193055 | 25 | 154 | 8.0 | 20.9 | 0.00 | 0.00 | 0.00 | 45 | 1021.0 |
| 20260503192556 | 25 | 120 | 8.0 | 20.9 | 0.00 | 0.00 | 0.00 | 41 | 1021.1 |
| 20260503192055 | 24 | 126 | 11.3 | 20.9 | 0.00 | 0.00 | 0.00 | 46 | 1021.1 |
| 20260503191556 | 24 | 122 | 6.4 | 19.3 | 0.00 | 0.00 | 0.00 | 46 | 1021.2 |
| 20260503191055 | 24 | 93 | 9.7 | 22.5 | 0.00 | 0.00 | 0.00 | 43 | 1021.2 |
| 20260503190555 | 24 | 139 | 11.3 | 22.5 | 0.00 | 0.00 | 0.00 | 44 | 1021.4 |
| 20260503190106 | 25 | 141 | 11.3 | 22.5 | 0.00 | 0.00 | 0.00 | 43 | 1021.3 |
| 20260503185556 | 25 | 156 | 8.0 | 19.3 | 0.00 | 0.00 | 0.00 | 44 | 1021.4 |
| 20260503185055 | 24 | 110 | 9.7 | 19.3 | 0.00 | 0.00 | 0.00 | 49 | 1021.4 |
| 20260503184602 | 25 | 151 | 12.9 | 17.7 | 0.00 | 0.00 | 0.00 | 47 | 1021.6 |
| 20260503184057 | 25 | 145 | 11.3 | 20.9 | 0.00 | 0.00 | 0.00 | 44 | 1021.7 |
| 20260503183551 | 25 | 165 | 11.3 | 25.7 | 0.00 | 0.00 | 0.00 | 47 | 1021.7 |
| 20260503183056 | 25 | 171 | 16.1 | 25.7 | 0.00 | 0.00 | 0.00 | 48 | 1021.8 |
| 20260503182555 | 25 | 210 | 6.4 | 17.7 | 0.00 | 0.00 | 0.00 | 46 | 1022.0 |
| 20260503182055 | 24 | 157 | 11.3 | 17.7 | 0.00 | 0.00 | 0.00 | 46 | 1022.0 |
| 20260503181600 | 24 | 115 | 11.3 | 17.7 | 0.00 | 0.00 | 0.00 | 48 | 1022.1 |
| 20260503181056 | 24 | 146 | 11.3 | 20.9 | 0.00 | 0.00 | 0.00 | 45 | 1022.1 |
| 20260503180555 | 24 | 193 | 6.4 | 20.9 | 0.00 | 0.00 | 0.00 | 48 | 1022.1 |
| 20260503180058 | 24 | 192 | 9.7 | 20.9 | 0.00 | 0.00 | 0.00 | 50 | 1022.3 |
| 20260503175555 | 23 | 150 | 9.7 | 14.5 | 0.00 | 0.00 | 0.00 | 49 | 1022.4 |
| 20260503175055 | 23 | 131 | 8.0 | 16.1 | 0.00 | 0.00 | 0.00 | 50 | 1022.5 |
| 20260503174554 | 23 | 131 | 8.0 | 16.1 | 0.00 | 0.00 | 0.00 | 47 | 1022.7 |
| 20260503174055 | 23 | 163 | 6.4 | 19.3 | 0.00 | 0.00 | 0.00 | 45 | 1022.8 |
| 20260503173556 | 23 | 166 | 9.7 | 19.3 | 0.00 | 0.00 | 0.00 | 46 | 1022.9 |
| 20260503173100 | 23 | 157 | 11.3 | 19.3 | 0.00 | 0.00 | 0.00 | 48 | 1023.0 |
| 20260503172555 | 23 | 210 | 8.0 | 17.7 | 0.00 | 0.00 | 0.00 | 49 | 1023.1 |
| 20260503172054 | 23 | 110 | 6.4 | 19.3 | 0.00 | 0.00 | 0.00 | 45 | 1023.2 |
| 20260503171600 | 23 | 137 | 9.7 | 19.3 | 0.00 | 0.00 | 0.00 | 47 | 1023.2 |
| 20260503171057 | 23 | 112 | 8.0 | 16.1 | 0.00 | 0.00 | 0.00 | 46 | 1023.4 |
| 20260503170556 | 23 | 162 | 11.3 | 16.1 | 0.00 | 0.00 | 0.00 | 47 | 1023.4 |
| 20260503150555 | 21 | 205 | 9.7 | 14.5 | 0.00 | 0.00 | 0.00 | 65 | 1023.4 |
| 20260503131055 | 16 | 0 | 0.0 | 0.0 | 0.00 | 0.00 | 0.00 | 81 | 1023.0 |
| 20260503130555 | 16 | 0 | 0.0 | 0.0 | 0.00 | 0.00 | 0.00 | 81 | 1022.8 |